Hourly Data Report for November 19, 2004

TORONTO CITY
ONTARIO

43°40'00.000" N
79°24'00.000" W
112.50 m
6158355
71508
XTO

Download Data

Hourly Data (November 2004)
Hourly Data Report for November 19, 2004
TIME
LST
Temp Definition
°C
Dew Point Definition
°C
Rel Hum Definition
%
Precip. Amount Definition
mm

Wind Dir Definition
10's deg

Wind Spd Definition
km/h
Visibility Definition
km
Stn Press Definition
kPa
Hmdx Definition


Wind Chill Definition


Weather Definition


00:00 10.1 7.4 83   LegendMM LegendMM LegendMM 100.67     LegendNANA
01:00 9.7 6.7 82   LegendMM LegendMM LegendMM 100.68     LegendNANA
02:00 8.6 5.6 81   LegendMM LegendMM LegendMM 100.70     LegendNANA
03:00 8.5 5.3 80   LegendMM LegendMM LegendMM 100.73     LegendNANA
04:00 8.6 5.2 79   LegendMM LegendMM LegendMM 100.75     LegendNANA
05:00 8.8 5.1 78   LegendMM LegendMM LegendMM 100.78     LegendNANA
06:00 8.8 5.0 77   LegendMM LegendMM LegendMM 100.80     LegendNANA
07:00 8.3 5.5 83   LegendMM LegendMM LegendMM 100.82     LegendNANA
08:00 8.0 5.9 87   LegendMM LegendMM LegendMM 100.89     LegendNANA
09:00 8.2 6.0 86   LegendMM LegendMM LegendMM 100.93     LegendNANA
10:00 9.0 5.9 81   LegendMM LegendMM LegendMM 100.93     LegendNANA
11:00 9.6 4.8 72   LegendMM LegendMM LegendMM 100.93     LegendNANA
12:00 9.6 2.2 60   LegendMM LegendMM LegendMM 100.88     LegendNANA
13:00 9.4 1.7 59   LegendMM LegendMM LegendMM 100.82     LegendNANA
14:00 8.8 2.0 62   LegendMM LegendMM LegendMM 100.79     LegendNANA
15:00 8.3 1.9 64   LegendMM LegendMM LegendMM 100.78     LegendNANA
16:00 8.4 2.1 64   LegendMM LegendMM LegendMM 100.78     LegendNANA
17:00 8.1 3.6 73   LegendMM LegendMM LegendMM 100.79     LegendNANA
18:00 7.9 5.3 84   LegendMM LegendMM LegendMM 100.77     LegendNANA
19:00 7.9 6.0 88   LegendMM LegendMM LegendMM 100.76     LegendNANA
20:00 7.8 5.8 87   LegendMM LegendMM LegendMM 100.76     LegendNANA
21:00 7.7 5.7 87   LegendMM LegendMM LegendMM 100.76     LegendNANA
22:00 7.6 5.7 88   LegendMM LegendMM LegendMM 100.71     LegendNANA
23:00 7.6 5.7 88   LegendMM LegendMM LegendMM 100.67     LegendNANA

Notes on Data Quality.

Legend

  • E = Estimated
  • M = Missing
  • NA = Not Available*
  • [empty] = Indicates an unobserved value
Date modified: